User: anonymous   Login
Location: Caltech
(34.1382°N, 118.1253°W)
Time: 01:05:31
(UTC-08:00)
Language:

Oscar 16 - Orbit

View from above orbital plane
View from above orbital plane
View from above satellite
View from above satellite

Ground track
Ground track

The orbit data is extracted from the following two-line orbital elements,

1 20439U 90005D   18051.79736771 +.00000024 +00000-0 +25012-4 0  9994
2 20439 098.6370 354.8036 0011394 144.5410 267.7359 14.32711777466756
Epoch (UTC): 20 February 2018 19:08:12
Eccentricity: 0.0011394
inclination: 98.6370°
perigee height: 774 km
apogee height: 791 km
right ascension of ascending node: 354.8036°
argument of perigee: 144.5410°
revolutions per day: 14.32711777
mean anomaly at epoch: 267.7359°
orbit number at epoch: 46675

The dashed part of the orbit path shows where the satellite is in the earth's shadow,  

DLR